Previsão horária em Aarwangen

Hoje, 20 Outubro, Terça-feira

Tempo Temperatura Precipitação Vento Pressão Humidade
00:00 +6°C° 0 mm 1 m/s 720 mmHg 83%
01:00 +6°C° 0 mm 1 m/s 720 mmHg 82%
02:00 +6°C° 0 mm 1 m/s 720 mmHg 82%
03:00 +6°C° 0 mm 1 m/s 720 mmHg 82%
04:00 +6°C° 0 mm 1 m/s 719 mmHg 82%
05:00 +6°C° 0 mm 1 m/s 719 mmHg 80%
06:00 +6°C° 0 mm 1 m/s 719 mmHg 78%
07:00 +6°C° 0 mm 1 m/s 719 mmHg 77%
08:00 +8°C° 0 mm 1 m/s 719 mmHg 71%
09:00 +10°C° 0 mm 1 m/s 719 mmHg 65%
10:00 +12°C° 0 mm 1 m/s 719 mmHg 58%
11:00 +14°C° 0 mm 1 m/s 719 mmHg 55%
12:00 +15°C° 0 mm 1 m/s 719 mmHg 52%
13:00 +18°C° 0 mm 1 m/s 720 mmHg 49%
14:00 +16°C° 0 mm 1 m/s 719 mmHg 54%
15:00 +16°C° 0 mm 1 m/s 719 mmHg 60%
16:00 +14°C° 0 mm 0 m/s 718 mmHg 65%
17:00 +14°C° 0 mm 1 m/s 719 mmHg 68%
18:00 +12°C° 0 mm 1 m/s 719 mmHg 70%
19:00 +11°C° 0 mm 1 m/s 719 mmHg 73%
20:00 +10°C° 0 mm 1 m/s 719 mmHg 72%
21:00 +10°C° 0 mm 1 m/s 719 mmHg 71%
22:00 +10°C° 0 mm 1 m/s 719 mmHg 70%
23:00 +10°C° 0 mm 1 m/s 718 mmHg 69%

Amanhã, 21 Outubro, Quarta-feira

Tempo Temperatura Precipitação Vento Pressão Humidade
00:00 +10°C° 0 mm 1 m/s 718 mmHg 69%
01:00 +9°C° 0 mm 1 m/s 718 mmHg 69%
02:00 +9°C° 0 mm 1 m/s 717 mmHg 70%
03:00 +9°C° 0 mm 1 m/s 717 mmHg 72%
04:00 +8°C° 0 mm 1 m/s 716 mmHg 73%
05:00 +8°C° 0 mm 1 m/s 716 mmHg 74%
06:00 +8°C° 0 mm 1 m/s 716 mmHg 76%
07:00 +8°C° 0 mm 1 m/s 716 mmHg 77%
08:00 +10°C° 0 mm 1 m/s 717 mmHg 72%
09:00 +12°C° 0 mm 1 m/s 717 mmHg 66%
10:00 +14°C° 0 mm 1 m/s 718 mmHg 60%
11:00 +16°C° 0 mm 1 m/s 718 mmHg 57%
12:00 +19°C° 0 mm 1 m/s 719 mmHg 54%
13:00 +21°C° 0 mm 1 m/s 719 mmHg 51%
14:00 +20°C° 0 mm 1 m/s 719 mmHg 56%
15:00 +20°C° 0 mm 1 m/s 719 mmHg 61%
16:00 +19°C° 0 mm 1 m/s 719 mmHg 66%
17:00 +16°C° 0 mm 1 m/s 719 mmHg 70%
18:00 +15°C° 0 mm 1 m/s 719 mmHg 74%
19:00 +13°C° 0 mm 1 m/s 719 mmHg 79%
20:00 +13°C° 0 mm 1 m/s 719 mmHg 77%
21:00 +13°C° 0 mm 1 m/s 720 mmHg 76%
22:00 +13°C° 0 mm 1 m/s 720 mmHg 74%
23:00 +13°C° 0 mm 1 m/s 720 mmHg 75%

Depois de amanhã, 22 Outubro, Quinta-feira

Tempo Temperatura Precipitação Vento Pressão Humidade
00:00 +12°C° 0 mm 1 m/s 720 mmHg 76%
01:00 +11°C° 0 mm 0 m/s 721 mmHg 76%
02:00 +11°C° 0 mm 0 m/s 720 mmHg 77%
03:00 +12°C° 0 mm 1 m/s 720 mmHg 78%
04:00 +11°C° 0 mm 1 m/s 720 mmHg 78%
05:00 +11°C° 0 mm 1 m/s 720 mmHg 78%
06:00 +11°C° 0 mm 1 m/s 720 mmHg 77%
07:00 +11°C° 0 mm 1 m/s 720 mmHg 77%
08:00 +12°C° 0 mm 1 m/s 720 mmHg 73%
09:00 +14°C° 0 mm 1 m/s 721 mmHg 69%
10:00 +15°C° 0 mm 1 m/s 721 mmHg 65%
11:00 +16°C° 0 mm 1 m/s 721 mmHg 64%
12:00 +18°C° 0 mm 1 m/s 721 mmHg 63%
13:00 +19°C° 0 mm 1 m/s 721 mmHg 62%
14:00 +19°C° 0 mm 1 m/s 721 mmHg 66%
15:00 +18°C° 0 mm 1 m/s 720 mmHg 69%
16:00 +18°C° 0 mm 1 m/s 720 mmHg 73%
17:00 +16°C° 0 mm 1 m/s 720 mmHg 78%
18:00 +14°C° 0 mm 1 m/s 720 mmHg 82%
19:00 +13°C° 0 mm 1 m/s 721 mmHg 87%
20:00 +13°C° 0 mm 1 m/s 721 mmHg 86%
21:00 +13°C° 0 mm 1 m/s 721 mmHg 86%
22:00 +12°C° 0 mm 0 m/s 721 mmHg 86%
23:00 +13°C° 0.2 mm 1 m/s 721 mmHg 87%

23 Outubro, Sexta-feira

Tempo Temperatura Precipitação Vento Pressão Humidade
00:00 +13°C° 0.2 mm 1 m/s 721 mmHg 88%
01:00 +13°C° 0.2 mm 1 m/s 720 mmHg 89%
02:00 +13°C° 0.9 mm 1 m/s 720 mmHg 91%
03:00 +13°C° 0.9 mm 1 m/s 720 mmHg 93%
04:00 +13°C° 0.9 mm 1 m/s 720 mmHg 96%
05:00 +12°C° 0.8 mm 1 m/s 720 mmHg 96%
06:00 +12°C° 0.8 mm 1 m/s 719 mmHg 96%
07:00 +12°C° 0.8 mm 1 m/s 719 mmHg 97%
08:00 +12°C° 1.5 mm 1 m/s 719 mmHg 97%
09:00 +13°C° 1.5 mm 1 m/s 720 mmHg 97%
10:00 +13°C° 1.5 mm 1 m/s 720 mmHg 97%
11:00 +13°C° 2.5 mm 1 m/s 720 mmHg 96%
12:00 +13°C° 2.5 mm 1 m/s 720 mmHg 95%
13:00 +13°C° 2.5 mm 2 m/s 720 mmHg 95%
14:00 +13°C° 0.4 mm 2 m/s 720 mmHg 93%
15:00 +13°C° 0.4 mm 2 m/s 721 mmHg 91%
16:00 +14°C° 0.4 mm 2 m/s 721 mmHg 90%
17:00 +13°C° 0 mm 2 m/s 721 mmHg 91%
18:00 +12°C° 0 mm 2 m/s 721 mmHg 92%
19:00 +11°C° 0 mm 1 m/s 722 mmHg 94%
20:00 +11°C° 0 mm 1 m/s 722 mmHg 94%
21:00 +10°C° 0 mm 1 m/s 722 mmHg 94%
22:00 +10°C° 0 mm 1 m/s 723 mmHg 95%
23:00 +9°C° 0 mm 1 m/s 723 mmHg 95%

24 Outubro, Sábado

Tempo Temperatura Precipitação Vento Pressão Humidade
00:00 +9°C° 0 mm 1 m/s 723 mmHg 95%
01:00 +9°C° 0 mm 1 m/s 723 mmHg 95%
02:00 +9°C° 0 mm 1 m/s 723 mmHg 95%
03:00 +9°C° 0 mm 1 m/s 723 mmHg 94%
04:00 +9°C° 0 mm 1 m/s 723 mmHg 94%
05:00 +8°C° 0 mm 1 m/s 723 mmHg 94%
06:00 +8°C° 0 mm 1 m/s 724 mmHg 94%
07:00 +8°C° 0 mm 1 m/s 724 mmHg 94%
08:00 +9°C° 0 mm 1 m/s 724 mmHg 91%
09:00 +10°C° 0 mm 0 m/s 724 mmHg 87%
10:00 +11°C° 0 mm 0 m/s 724 mmHg 84%
11:00 +13°C° 0 mm 1 m/s 724 mmHg 78%
12:00 +14°C° 0 mm 1 m/s 723 mmHg 73%
13:00 +15°C° 0 mm 1 m/s 723 mmHg 67%
14:00 +15°C° 0 mm 1 m/s 723 mmHg 69%
15:00 +15°C° 0 mm 1 m/s 723 mmHg 70%
16:00 +14°C° 0 mm 1 m/s 722 mmHg 72%
17:00 +12°C° 0 mm 1 m/s 722 mmHg 79%
18:00 +10°C° 0 mm 0 m/s 722 mmHg 86%
19:00 +8°C° 0 mm 0 m/s 722 mmHg 93%
20:00 +7°C° 0 mm 0 m/s 722 mmHg 93%
21:00 +7°C° 0 mm 0 m/s 722 mmHg 93%
22:00 +7°C° 0 mm 0 m/s 722 mmHg 93%
23:00 +7°C° 0 mm 0 m/s 721 mmHg 93%

25 Outubro, Domingo

Tempo Temperatura Precipitação Vento Pressão Humidade
00:00 +6°C° 0 mm 0 m/s 721 mmHg 93%
01:00 +6°C° 0 mm 0 m/s 721 mmHg 93%
02:00 +6°C° 0 mm 0 m/s 720 mmHg 93%
03:00 +6°C° 0 mm 0 m/s 720 mmHg 93%
04:00 +5°C° 0 mm 0 m/s 719 mmHg 93%
05:00 +5°C° 0 mm 0 m/s 719 mmHg 93%
06:00 +5°C° 0 mm 0 m/s 719 mmHg 93%
07:00 +5°C° 0 mm 0 m/s 719 mmHg 92%
08:00 +7°C° 0 mm 0 m/s 718 mmHg 86%
09:00 +9°C° 0 mm 0 m/s 718 mmHg 80%
10:00 +11°C° 0 mm 0 m/s 718 mmHg 74%
11:00 +14°C° 0 mm 1 m/s 717 mmHg 69%
12:00 +15°C° 0 mm 1 m/s 717 mmHg 64%
13:00 +18°C° 0 mm 1 m/s 717 mmHg 58%
14:00 +16°C° 0 mm 1 m/s 716 mmHg 62%
15:00 +16°C° 0 mm 1 m/s 716 mmHg 66%
16:00 +14°C° 0 mm 0 m/s 715 mmHg 70%
17:00 +12°C° 0 mm 0 m/s 715 mmHg 75%
18:00 +11°C° 0 mm 1 m/s 715 mmHg 81%
19:00 +9°C° 0 mm 1 m/s 715 mmHg 86%
20:00 +9°C° 0 mm 1 m/s 715 mmHg 86%
21:00 +9°C° 0 mm 1 m/s 715 mmHg 86%
22:00 +8°C° 0 mm 1 m/s 715 mmHg 86%
23:00 +8°C° 0 mm 1 m/s 714 mmHg 86%

26 Outubro, Segunda-feira

Tempo Temperatura Precipitação Vento Pressão Humidade
00:00 +8°C° 0 mm 1 m/s 714 mmHg 86%
01:00 +8°C° 0 mm 1 m/s 714 mmHg 86%
02:00 +8°C° 0 mm 1 m/s 713 mmHg 86%
03:00 +8°C° 0 mm 1 m/s 713 mmHg 85%
04:00 +7°C° 0 mm 0 m/s 712 mmHg 85%
05:00 +8°C° 0 mm 1 m/s 712 mmHg 85%
06:00 +8°C° 0 mm 1 m/s 712 mmHg 86%
07:00 +8°C° 0 mm 1 m/s 712 mmHg 86%
08:00 +9°C° 0 mm 1 m/s 712 mmHg 82%
09:00 +11°C° 0 mm 1 m/s 712 mmHg 77%
10:00 +11°C° 0 mm 0 m/s 713 mmHg 73%
11:00 +12°C° 0.6 mm 1 m/s 713 mmHg 78%
12:00 +10°C° 0.6 mm 2 m/s 713 mmHg 84%
13:00 +9°C° 0.6 mm 3 m/s 714 mmHg 89%
14:00 +9°C° 1.4 mm 3 m/s 714 mmHg 91%
15:00 +8°C° 1.4 mm 3 m/s 715 mmHg 93%
16:00 +7°C° 1.4 mm 3 m/s 715 mmHg 95%
17:00 +7°C° 0.8 mm 3 m/s 716 mmHg 94%
18:00 +7°C° 0.8 mm 2 m/s 716 mmHg 94%
19:00 +7°C° 0.8 mm 2 m/s 717 mmHg 94%
20:00 +7°C° 0.1 mm 2 m/s 717 mmHg 94%
21:00 +6°C° 0.1 mm 2 m/s 718 mmHg 94%
22:00 +7°C° 0.1 mm 1 m/s 718 mmHg 94%
23:00 +6°C° 0 mm 1 m/s 718 mmHg 94%
Mostrar mais